RH
2 2 3 3 3 5 6 6 8 12 16 19 23 27 29 32 34 37 40 41 42 42 41 39 37 35 33 32 30 28 27 25 22 20 18 17 17 16 15 14 13 12 12 11 11 11 11 12 11 11 10 9 9 9 9 9 10 9 10 10 10 10 10 9 8 7 7 5 6 6 6 5 10 13 5 5 7 7 10 11 15 18 21 23 22 24 23 21
4 4 4 4 4 5 6 8 10 13 19 24 29 34 38 41 44 46 47 48 47 46 45 43 41 39 37 35 33 31 30 28 26 24 22 20 19 18 17 17 16 14 13 13 13 13 13 13 13 13 11 11 10 10 10 10 10 10 11 12 12 12 10 9 8 7 6 6 6 6 7 5 11 14 5 7 9 8 9 9 13 16 20 22 23 23 19 17
6 6 5 5 5 6 6 9 12 14 19 26 33 39 44 47 51 54 55 54 53 51 48 47 45 43 41 38 36 33 31 29 28 27 25 24 22 21 20 19 18 16 16 15 15 14 14 14 14 13 12 11 11 11 11 11 12 12 12 14 14 12 11 10 8 8 7 7 7 6 8 6 9 8 10 20 11 5 15 14 13 16 22 24 22 20 16 17
7 8 7 7 7 7 7 8 12 15 18 23 31 40 46 52 57 58 59 58 57 55 53 51 49 46 43 40 38 35 33 30 28 28 27 26 24 23 22 20 20 18 18 17 16 15 15 15 15 14 13 12 12 12 12 12 13 13 14 15 14 13 12 11 9 9 8 8 8 7 8 7 9 6 13 34 26 17 30 33 22 15 19 22 20 18 16 19
9 9 8 9 9 9 10 10 11 15 17 20 26 34 43 51 57 59 59 61 60 59 57 56 55 52 48 44 41 37 34 31 28 28 27 26 26 25 23 22 21 20 19 19 17 16 16 16 15 14 14 12 12 12 13 14 14 15 16 15 15 14 13 12 10 10 9 9 9 9 10 8 9 8 8 26 35 32 37 42 35 22 20 21 18 18 20 24
11 10 9 9 10 11 11 12 12 14 17 19 22 28 37 46 55 59 60 63 64 63 61 60 59 57 54 51 48 43 38 33 29 28 27 27 26 25 24 23 22 21 21 20 18 17 16 16 16 15 14 13 13 14 14 15 16 17 17 16 15 16 14 13 12 12 11 10 10 9 11 10 9 11 7 12 26 32 28 32 33 27 23 20 20 24 26 31
13 13 11 10 10 11 12 13 14 14 16 18 20 24 33 43 52 59 61 63 65 66 65 64 64 62 58 54 51 48 44 38 32 29 28 27 26 25 25 23 23 22 21 20 19 18 17 17 16 15 15 14 14 14 14 15 17 18 17 16 16 17 15 14 14 14 13 12 12 11 12 12 10 11 11 10 16 21 18 19 22 23 24 24 27 29 32 35
16 16 15 14 12 12 12 13 14 14 15 17 19 22 28 39 49 55 59 61 61 64 66 67 67 65 61 55 52 49 47 45 39 33 30 29 27 26 25 24 23 22 20 19 19 18 17 17 16 16 15 15 14 14 14 15 17 18 18 17 17 18 16 15 15 16 16 14 13 13 13 13 13 12 12 12 12 13 15 18 21 24 28 31 33 34 35 35
18 18 19 18 17 15 14 13 13 14 15 15 18 20 24 34 45 52 55 57 56 57 61 64 66 64 61 57 54 50 47 47 45 39 33 30 29 28 27 25 23 21 20 19 18 17 16 16 16 16 15 14 14 14 14 15 16 17 18 17 18 19 17 16 16 17 16 15 14 15 15 14 14 14 13 13 13 14 17 19 23 27 32 36 37 37 37 35
20 21 21 21 21 21 19 17 15 15 15 16 16 19 22 28 40 50 53 54 55 54 54 56 60 62 60 58 55 51 47 45 45 44 37 32 30 29 28 25 24 21 20 19 18 17 16 15 14 14 14 14 14 13 13 14 15 16 17 17 19 19 18 17 17 17 16 16 16 16 16 15 15 15 16 17 15 15 17 18 21 25 31 35 38 40 40 38
21 23 24 24 24 25 25 23 19 16 16 17 18 18 20 24 34 48 56 56 57 58 57 56 57 58 58 57 55 53 49 44 43 43 40 35 31 29 28 25 23 21 19 18 17 16 15 14 13 13 13 13 13 13 13 14 14 15 16 17 19 19 18 18 17 17 17 17 17 17 17 16 17 16 17 19 17 16 16 17 19 21 25 28 32 35 35 33
20 23 25 26 27 27 28 28 26 21 17 18 19 19 21 22 30 47 60 61 62 64 64 64 63 61 60 57 55 53 50 48 45 42 40 38 34 31 28 24 22 20 19 17 16 15 14 13 12 12 12 12 12 12 12 13 13 14 16 17 19 19 18 18 18 18 18 19 17 17 18 17 17 17 17 17 17 17 17 18 18 19 21 21 24 25 26 26
19 21 23 25 28 30 30 30 31 28 23 20 21 21 22 22 26 43 60 66 66 68 69 70 70 67 63 60 58 55 51 49 47 43 42 39 36 31 26 23 21 19 17 16 14 13 12 11 11 11 11 12 12 11 11 12 13 13 15 17 18 19 19 18 18 18 19 19 19 19 19 19 18 18 18 17 17 18 17 19 19 19 19 18 20 21 22 22
19 20 21 23 26 30 32 32 32 32 29 25 23 23 23 23 25 38 58 69 69 70 71 72 73 70 67 63 60 57 54 51 48 45 43 41 37 30 24 20 18 17 16 14 12 11 11 10 10 10 11 11 11 11 11 11 12 13 14 16 18 19 20 19 19 19 20 19 20 20 19 23 24 19 19 19 18 19 18 18 19 18 18 18 19 20 22 20
18 19 20 22 24 28 33 34 33 33 34 31 27 25 25 25 26 34 52 67 71 71 71 73 73 71 68 64 60 58 55 52 49 46 44 41 35 27 21 18 16 16 14 13 11 10 10 10 10 10 10 11 12 11 11 11 11 12 13 16 18 20 20 19 19 19 20 20 20 21 20 27 30 21 19 20 18 19 19 19 19 18 19 19 20 20 21 19
18 19 20 22 24 27 33 38 36 33 33 35 33 30 28 27 28 33 46 64 73 72 71 72 72 69 66 63 60 58 54 52 50 47 43 38 30 22 17 16 16 15 14 12 11 10 10 11 10 11 11 12 13 12 11 11 11 12 13 15 17 20 21 20 20 20 20 20 21 21 20 26 28 20 20 21 19 20 19 19 20 19 20 20 20 20 20 20
18 19 20 22 24 26 32 39 42 37 33 34 37 36 33 30 29 30 42 62 73 73 71 71 70 67 62 59 57 55 53 51 49 46 40 32 23 17 16 16 16 16 15 13 11 11 11 11 11 11 11 12 14 13 12 11 12 12 13 15 16 19 20 20 20 20 21 20 20 21 21 23 23 20 21 21 20 21 20 21 20 20 20 20 20 21 20 20
17 18 19 21 23 26 29 35 42 43 38 33 36 40 39 36 33 31 42 61 72 72 70 69 68 64 58 55 54 52 51 48 46 42 35 25 18 15 15 16 16 16 16 14 12 11 11 11 11 11 11 13 15 15 13 13 13 13 14 15 16 18 20 20 20 20 20 21 20 21 21 21 21 20 21 21 21 21 21 21 21 21 21 21 21 21 21 19
17 17 17 19 21 24 27 30 37 43 44 38 34 38 41 40 38 34 39 54 66 68 66 64 63 60 56 53 51 49 48 46 42 36 28 20 16 16 16 16 17 17 16 15 13 11 11 10 10 11 11 12 14 16 16 14 13 13 14 14 16 18 19 19 19 19 20 20 20 20 20 20 20 20 21 21 21 22 22 21 21 21 20 21 22 21 21 20
16 15 16 16 18 20 23 26 30 37 44 44 38 36 39 41 40 38 40 49 59 65 64 61 59 57 55 51 48 46 43 40 35 29 22 17 16 17 17 17 17 17 17 16 14 13 12 11 10 11 11 11 12 15 15 14 14 14 13 14 16 16 18 19 18 18 19 19 19 19 19 20 20 20 21 21 21 21 21 21 20 21 21 21 22 21 21 19
15 15 14 14 15 18 20 22 25 30 38 45 45 41 39 40 40 41 42 47 54 60 61 60 57 55 54 50 45 43 40 35 28 22 18 16 17 18 18 18 18 18 18 17 16 14 12 11 11 10 10 11 11 12 13 14 15 15 15 16 16 16 17 17 17 18 18 18 19 18 19 20 20 20 20 19 20 20 20 21 20 19 19 21 21 22 21 18
13 13 13 12 12 14 17 19 21 25 30 39 48 50 45 40 39 40 41 42 47 51 52 53 54 53 54 50 43 39 35 29 22 18 18 18 18 19 19 19 18 18 19 18 17 15 13 12 11 10 10 10 10 10 11 12 13 14 16 16 16 18 17 16 17 17 18 17 17 18 19 19 19 20 20 18 18 19 19 18 17 17 17 20 21 21 20 18
11 10 10 11 11 12 14 16 18 21 25 32 43 53 52 45 39 39 40 40 42 44 43 44 47 49 52 50 42 36 29 23 18 17 18 20 20 20 20 19 19 19 20 20 18 16 15 13 12 11 10 9 10 10 10 10 11 11 12 13 15 15 16 20 19 15 16 16 16 17 18 19 19 17 17 18 17 16 16 15 13 15 16 19 21 21 21 21
8 8 9 9 10 11 11 13 14 16 21 26 35 46 52 50 46 41 41 40 39 41 39 37 41 46 47 44 38 33 24 17 17 18 20 21 21 21 21 21 20 21 22 21 20 18 16 15 14 12 12 11 10 9 10 9 9 10 9 10 12 12 14 19 18 14 14 13 15 16 17 21 23 19 16 15 17 15 14 16 15 15 16 19 23 23 26 30
15 14 14 13 13 12 11 12 12 13 15 20 29 39 44 47 50 48 45 44 42 40 37 34 36 41 43 40 34 30 24 17 16 20 21 22 22 22 22 22 21 22 23 23 22 21 18 16 15 14 13 12 11 11 10 10 9 9 9 9 10 11 11 12 12 9 12 15 16 14 19 26 23 21 21 18 21 23 23 25 24 23 24 26 30 34 40 45
30 28 27 25 22 19 16 13 12 13 12 14 21 32 37 39 46 51 50 51 49 43 38 36 34 35 37 36 31 28 23 17 17 20 22 22 22 23 22 23 23 23 23 23 22 22 21 19 17 16 15 13 13 12 10 11 10 8 10 10 10 10 9 10 9 8 22 34 24 13 28 45 34 23 27 28 30 34 35 37 35 35 38 39 46 53 56 57
37 37 36 34 32 29 25 19 16 15 13 14 16 23 32 33 38 45 48 54 55 48 42 38 36 36 36 33 29 27 21 18 20 21 23 24 23 23 23 24 25 24 23 23 23 22 21 20 18 17 16 15 13 12 12 12 10 13 15 11 9 10 10 11 7 10 31 44 32 17 27 53 53 35 34 39 38 39 40 42 44 46 50 54 62 63 60 58
39 39 39 39 38 37 34 28 23 18 15 15 14 18 26 29 34 39 45 52 54 51 47 42 39 38 39 38 34 30 23 20 22 24 24 24 24 24 24 24 25 25 25 24 23 23 21 21 21 19 17 16 14 13 14 12 11 17 16 11 11 11 9 10 8 12 23 30 37 34 23 42 64 52 45 49 45 42 43 46 51 55 59 63 66 63 58 57
41 41 42 41 41 40 39 37 32 24 18 16 14 15 20 24 31 37 42 47 50 53 54 51 47 43 40 40 39 37 31 24 23 24 24 23 24 25 25 26 25 25 26 26 24 22 22 21 21 21 19 17 16 14 13 12 15 17 13 11 12 12 11 11 15 24 25 21 38 50 35 44 71 64 54 56 47 41 44 51 59 60 62 64 62 62 59 55
41 41 42 42 42 42 42 41 38 32 25 20 16 15 17 20 28 36 40 41 44 50 55 57 56 53 49 44 41 41 39 33 27 24 24 24 25 26 26 26 25 27 27 27 26 24 23 23 22 23 22 19 18 16 15 13 15 16 13 12 12 13 13 9 18 35 41 34 34 49 48 46 67 74 63 59 53 46 48 56 62 62 62 62 60 61 60 57
37 38 39 41 42 42 42 42 42 39 33 25 19 17 19 22 26 32 35 35 38 44 49 53 54 56 59 57 50 45 42 40 35 31 28 26 25 25 26 25 24 27 28 27 28 27 25 25 24 24 23 24 22 18 18 15 15 15 13 13 16 20 17 18 33 38 39 46 43 49 52 41 59 81 71 63 62 60 61 63 66 67 65 63 62 64 64 63
30 31 33 36 38 39 40 42 44 43 39 31 25 21 22 25 24 23 29 35 37 39 43 48 51 52 55 61 64 58 50 44 40 39 37 34 32 28 27 27 26 27 30 31 31 31 31 29 29 29 26 26 24 23 23 18 17 16 14 18 26 39 34 26 41 40 31 48 54 53 53 41 53 72 68 68 69 64 67 68 70 71 66 64 66 69 72 72
21 22 24 27 32 34 35 38 43 46 45 38 31 26 25 26 22 21 33 42 41 39 41 45 50 51 50 55 66 71 66 56 48 43 41 40 39 37 33 31 30 30 32 34 33 33 36 34 33 33 32 30 27 28 28 26 24 19 21 27 32 55 57 27 31 47 43 50 52 48 48 45 55 60 56 67 72 68 69 69 71 73 70 70 71 74 78 75
9 10 12 14 20 25 29 34 38 43 48 46 39 32 28 27 24 24 36 47 48 47 45 44 47 52 52 51 57 70 76 73 64 54 47 44 42 42 41 37 33 33 34 38 41 38 37 41 42 37 35 35 33 32 32 35 40 33 32 39 38 57 69 45 42 60 58 53 49 44 42 44 55 58 55 64 69 69 71 69 71 73 73 75 75 77 78 76
4 5 5 5 7 11 16 23 32 39 45 49 46 39 34 29 25 28 38 48 55 55 51 49 49 50 54 53 51 59 71 77 79 74 63 55 49 45 44 45 43 39 37 41 47 42 39 48 53 47 43 41 37 38 35 34 46 46 36 37 41 51 59 51 50 55 55 56 52 46 41 37 47 59 66 72 70 66 69 69 71 73 73 75 75 76 78 79
4 4 4 4 4 4 6 9 18 28 39 47 49 45 41 33 25 28 39 48 56 61 58 54 52 51 54 57 54 53 63 77 85 88 84 74 67 60 53 54 55 54 52 52 55 55 52 55 55 50 50 48 44 44 41 38 53 64 53 41 38 41 44 46 47 43 41 46 46 47 47 41 46 58 66 73 75 72 73 73 73 74 75 75 77 79 83 87
4 4 4 4 4 4 4 4 6 12 24 37 43 44 46 41 28 25 34 45 54 61 62 57 53 53 54 59 65 59 61 75 79 82 90 88 82 79 74 70 68 67 68 67 74 77 71 70 70 61 53 50 51 51 48 45 51 68 75 63 51 48 44 44 52 51 43 41 40 43 48 46 47 56 61 69 78 80 81 81 79 80 80 80 81 83 86 89
5 5 5 4 4 4 4 5 4 4 9 18 29 40 49 49 36 23 26 40 51 56 60 60 56 54 51 57 73 68 60 73 78 72 78 84 84 88 90 86 82 80 77 74 83 88 80 84 91 81 65 58 58 57 57 54 47 53 67 68 65 68 59 48 48 49 48 49 46 41 44 47 48 59 68 72 79 82 83 86 85 83 83 82 84 86 87 89
5 5 5 5 5 5 4 4 4 4 4 5 12 26 44 55 48 29 21 30 45 52 54 58 58 54 49 50 66 72 69 79 82 72 75 80 79 82 86 91 91 91 89 82 82 86 84 88 96 93 82 73 67 63 61 61 55 48 51 55 61 69 71 67 62 56 55 59 59 50 47 50 55 62 66 67 74 79 80 82 83 82 81 78 78 78 77 75
6 5 5 4 4 4 5 4 4 4 4 3 5 11 28 52 58 41 23 21 34 46 49 54 58 56 50 46 53 67 76 81 77 74 82 83 79 78 78 85 91 93 97 93 85 86 86 87 93 96 91 81 78 74 67 67 67 59 52 52 53 54 59 65 68 69 70 71 74 69 58 57 64 65 58 55 58 61 63 64 64 63 59 55 53 50 48 47
5 5 5 5 5 5 4 4 4 4 4 4 4 3 12 39 60 52 29 16 23 36 43 48 54 56 54 46 45 53 64 71 70 71 80 83 87 91 82 81 87 91 99 100 94 90 86 85 91 95 92 88 85 82 75 71 72 71 69 65 64 65 63 57 57 61 63 66 75 79 72 70 74 69 57 51 48 46 46 46 44 43 40 37 36 34 33 33
5 5 6 5 5 6 5 6 5 5 5 4 5 4 3 19 50 60 41 19 16 26 35 40 45 54 57 50 46 47 49 58 65 68 70 74 86 96 92 91 92 92 96 99 98 95 91 94 97 93 94 95 89 85 81 76 71 71 75 75 77 80 76 71 70 68 64 62 63 69 75 79 83 78 64 58 56 52 48 46 43 41 37 34 33 31 31 31
6 6 7 7 6 7 5 7 8 6 4 4 4 5 3 8 36 60 51 27 15 17 25 32 37 46 55 53 48 45 44 48 56 61 64 66 72 80 85 92 97 98 98 97 97 98 97 98 98 94 95 95 90 87 84 80 79 76 72 71 75 79 79 80 81 79 79 76 64 63 73 75 78 81 74 68 67 61 54 50 48 44 40 38 38 37 34 34
7 7 8 7 6 7 6 9 16 17 14 15 13 11 7 3 20 52 58 35 18 16 18 24 30 35 47 54 49 45 45 45 47 54 63 67 70 72 73 78 85 91 97 98 99 100 98 95 95 97 97 94 94 92 83 79 82 80 75 71 70 72 72 73 73 74 81 84 78 78 82 78 77 80 77 73 72 67 60 55 52 49 44 43 47 51 51 49
8 9 9 9 8 8 7 6 12 19 18 18 22 28 26 12 12 42 62 45 22 17 16 18 22 25 33 46 50 47 46 46 45 49 58 64 68 71 72 73 77 79 83 91 97 99 97 94 96 101 99 97 99 96 87 83 80 73 72 74 72 71 71 68 68 70 71 71 74 80 82 84 88 86 79 75 73 69 64 60 57 54 47 41 40 44 50 56
9 10 10 11 9 7 8 7 6 9 10 10 14 22 27 21 19 39 61 54 30 18 18 18 19 20 21 31 43 47 45 46 48 50 55 59 63 68 72 77 80 79 77 80 88 96 99 97 98 99 96 96 99 94 90 92 88 79 75 76 75 74 74 72 69 71 71 67 70 78 82 89 96 93 85 79 74 71 68 64 60 56 50 43 36 31 32 38
10 11 10 11 11 9 9 8 5 7 8 9 11 12 10 12 21 40 59 59 38 19 17 20 19 19 19 19 28 39 44 46 48 51 55 59 63 68 73 80 84 82 79 80 83 88 96 99 98 96 92 90 93 94 95 98 96 91 86 84 82 78 77 75 69 71 78 79 80 85 89 93 94 91 86 81 76 73 71 67 61 55 51 47 40 35 34 36
10 11 11 11 9 8 8 9 15 21 17 9 8 13 11 11 25 48 62 62 44 23 17 20 20 21 21 19 19 25 36 44 47 51 56 60 65 69 72 78 83 83 83 88 89 89 92 96 99 101 96 91 92 96 99 100 100 96 90 87 86 83 82 82 76 74 78 81 83 86 89 94 95 92 88 85 80 78 76 73 66 55 50 47 41 37 39 44
11 11 13 10 6 21 47 52 37 27 31 34 30 22 19 24 42 63 71 63 46 27 18 19 20 21 22 21 18 17 23 33 42 47 52 58 65 69 73 76 79 80 81 83 87 89 90 90 93 99 100 97 97 100 101 101 101 99 93 87 84 84 86 87 87 85 84 83 84 84 86 93 99 98 95 91 88 85 83 81 73 60 52 49 45 40 38 42
11 12 14 9 12 50 96 96 64 49 63 82 76 48 31 41 61 72 73 64 46 29 21 20 20 21 22 21 19 16 16 20 29 39 46 53 57 59 64 67 68 73 79 83 87 89 91 92 91 91 93 92 92 97 101 102 100 98 97 92 86 84 84 85 85 86 88 87 85 82 81 86 94 100 100 98 96 93 90 88 82 70 59 53 49 44 40 39
11 13 14 8 19 64 105 104 88 88 93 99 96 67 42 53 75 79 73 63 47 33 24 19 19 21 21 22 22 20 18 15 18 27 33 41 48 51 56 62 66 72 80 89 97 97 97 100 97 92 88 83 81 85 92 98 101 100 100 97 91 88 90 90 87 85 88 90 89 87 86 85 90 98 101 101 100 99 96 94 89 80 67 55 47 43 41 40
10 13 14 9 15 47 84 99 102 103 98 99 102 81 53 56 75 83 82 72 55 40 29 22 22 22 22 25 26 24 23 19 16 19 26 35 43 45 52 64 73 77 79 86 97 102 100 99 97 92 84 75 71 72 76 87 94 93 95 99 98 96 97 98 97 95 95 96 96 96 95 91 92 97 100 101 102 102 101 98 94 88 77 64 53 46 43 43
Wind_Speed
28 28 28 27 27 27 27 27 26 26 25 24 23 22 22 21 21 21 21 21 21 21 20 20 20 20 21 22 23 23 24 25 26 27 27 27 27 27 27 27 27 28 27 27 26 25 23 22 21 21 22 22 22 21 20 20 19 19 18 16 15 16 18 19 22 23 25 23 20 20 20 21 20 19 20 21 23 23 25 26 26 26 26 26 26 26 27 26
27 27 27 26 26 26 26 26 26 26 26 24 23 22 22 21 21 21 21 21 20 20 20 19 19 19 20 20 21 21 22 23 24 24 25 25 25 25 25 25 25 26 26 25 24 23 22 21 20 21 21 21 22 21 21 20 20 19 17 15 15 17 19 21 23 24 23 21 20 20 20 21 20 19 20 20 22 23 24 26 27 27 27 27 27 27 26 25
25 24 24 25 25 25 25 26 26 26 26 26 24 23 22 22 21 21 21 21 20 20 19 19 18 18 19 19 20 20 21 22 22 22 22 23 23 23 23 23 24 24 24 23 23 22 22 21 20 21 21 22 22 22 21 21 20 20 17 16 17 18 19 21 22 22 21 20 19 18 19 20 20 20 19 19 21 22 22 24 27 28 28 28 28 27 26 25
23 23 23 23 23 23 24 25 25 25 26 26 26 24 23 22 22 22 21 21 20 20 19 18 18 18 18 18 19 20 20 21 22 21 21 22 22 22 22 22 22 23 23 22 22 22 22 21 21 22 22 23 23 22 22 21 21 20 18 18 18 19 20 21 22 22 21 19 18 17 18 19 19 19 17 16 18 19 19 23 27 28 28 28 27 26 26 26
22 22 22 22 22 22 23 24 25 25 25 26 27 26 25 23 23 22 22 21 21 20 20 19 18 18 18 18 19 19 21 22 22 21 21 21 21 21 21 22 22 22 22 22 22 22 22 21 21 22 23 23 23 23 22 21 21 19 18 19 19 19 21 22 22 23 20 18 18 16 16 17 17 18 17 15 17 19 20 22 24 26 27 27 26 25 26 26
22 22 22 22 22 22 22 23 24 24 25 25 26 27 26 25 24 24 23 22 21 21 20 20 19 19 19 19 19 19 21 22 21 21 21 21 21 21 21 22 22 22 22 22 22 22 22 21 22 23 24 24 23 24 24 22 21 19 19 20 20 22 23 23 23 22 20 18 18 17 16 16 16 18 18 17 19 20 21 23 23 24 24 24 24 24 25 25
21 21 21 21 21 22 22 22 23 24 24 25 25 26 27 27 26 25 25 24 23 22 21 21 20 21 21 21 21 21 21 21 20 20 21 21 21 21 22 22 22 23 23 23 22 22 22 22 23 23 24 25 25 26 25 23 23 22 21 20 22 23 24 24 23 21 19 18 18 17 16 16 17 18 19 19 20 21 22 23 23 23 22 21 21 22 23 23
20 20 20 20 21 21 22 22 23 23 24 25 25 25 27 28 27 26 26 26 25 24 23 22 22 22 23 23 23 23 23 21 19 20 20 20 20 20 21 22 22 22 22 23 23 23 24 24 24 24 26 27 26 27 26 25 25 23 21 21 22 23 24 25 22 20 20 20 19 18 17 17 17 18 18 19 19 20 21 21 21 20 19 19 20 20 21 21
20 20 19 19 20 20 21 22 23 23 24 25 25 25 26 28 28 27 27 26 26 25 25 24 24 24 25 24 24 25 24 23 21 20 20 21 21 21 21 21 21 22 22 22 23 23 24 25 26 26 28 27 26 28 27 27 27 24 23 24 23 24 25 24 22 21 21 20 19 18 18 18 17 17 17 17 18 19 19 19 19 18 18 19 19 20 21 21
20 19 19 19 19 19 20 21 22 23 24 25 25 26 26 26 27 27 27 26 26 26 25 25 25 25 25 24 24 25 24 24 23 21 20 21 21 21 21 21 22 22 22 22 23 24 25 26 26 27 28 27 27 28 28 29 28 26 25 25 24 24 25 24 21 21 21 20 20 19 19 19 17 16 17 17 18 18 18 18 18 18 19 19 19 20 21 22
20 19 19 19 19 19 19 19 20 22 23 24 25 26 26 26 26 26 26 26 25 25 25 25 25 25 25 24 24 24 23 24 25 24 22 21 22 22 22 22 22 22 22 23 23 24 25 25 25 26 27 27 28 28 28 29 27 26 26 25 24 24 25 24 22 21 21 21 20 20 19 19 17 16 17 17 17 17 16 16 17 17 19 19 20 20 21 22
19 19 19 19 19 19 19 19 19 20 21 23 24 25 26 26 25 25 25 25 25 24 24 24 24 24 24 24 24 24 23 24 24 25 23 22 22 22 22 22 22 22 22 22 23 23 23 23 24 25 26 25 27 28 28 29 28 27 27 26 25 25 25 24 22 22 22 22 21 20 19 19 18 17 17 16 16 17 16 15 16 16 17 18 19 20 21 23
20 20 19 19 20 19 19 19 19 19 20 21 22 23 25 25 25 24 24 24 24 24 23 23 23 23 24 25 24 24 24 24 23 23 23 22 22 22 22 22 22 22 21 21 22 22 22 22 23 25 25 25 27 28 27 28 27 28 27 27 26 26 26 25 23 23 22 22 21 20 21 20 19 18 18 17 18 17 16 15 15 15 17 18 19 20 22 23
20 20 20 20 20 20 19 19 19 19 19 19 20 21 23 24 24 24 24 24 24 23 23 23 23 23 24 24 24 24 24 24 22 22 22 22 22 22 22 22 22 21 20 20 20 21 21 22 23 24 25 26 27 26 26 27 27 28 28 28 27 27 28 26 24 23 23 23 22 22 23 21 22 21 19 19 19 18 17 15 15 15 17 18 19 20 22 23
20 20 20 20 20 20 19 19 19 19 19 18 18 19 21 22 24 24 24 24 23 23 22 23 23 23 24 24 24 24 24 23 22 21 22 22 22 21 21 21 21 20 19 19 19 20 21 22 22 23 24 25 25 26 27 26 27 28 28 29 28 28 29 26 24 25 25 25 24 24 23 21 25 23 20 21 20 19 17 15 16 17 17 18 19 21 23 23
20 20 20 20 20 20 19 19 19 19 19 18 17 18 19 21 23 23 23 23 23 23 23 23 23 23 23 23 23 24 23 22 21 21 22 22 21 21 21 21 20 19 18 18 18 19 20 21 21 22 23 24 25 25 26 26 26 27 27 30 30 28 29 26 25 27 27 27 26 25 24 25 27 23 20 23 21 19 17 16 17 17 18 18 19 21 22 22
21 20 20 20 20 20 19 19 18 19 18 17 17 16 18 20 22 23 23 23 23 23 23 23 23 23 23 23 23 23 22 21 21 22 21 21 21 20 20 20 19 18 17 17 17 17 18 19 20 21 22 23 24 24 25 25 26 26 27 29 29 29 30 28 28 29 29 28 28 27 27 28 28 22 22 24 22 21 19 18 19 18 19 19 21 22 23 22
21 21 20 20 20 20 20 19 18 18 18 17 16 16 17 19 21 22 23 23 23 23 23 23 23 23 23 22 22 22 21 21 21 21 21 21 20 20 20 19 18 17 17 16 16 16 17 18 19 21 22 22 23 23 24 24 25 26 27 29 28 29 30 30 31 31 30 30 29 28 27 27 27 23 24 24 22 23 21 20 21 20 21 21 22 23 24 23
22 22 21 21 20 20 20 20 19 18 18 18 17 16 17 19 20 21 22 23 23 23 23 23 23 24 23 22 22 22 21 20 21 21 21 20 20 20 19 19 18 17 17 16 16 16 17 18 19 20 20 21 22 23 25 26 27 27 29 30 29 30 30 31 33 31 30 30 29 28 27 26 26 25 25 26 25 25 23 23 23 22 22 23 24 24 24 24
23 23 22 22 21 21 21 21 20 19 18 18 17 17 18 19 19 20 21 22 23 22 23 23 23 24 23 22 21 21 20 20 21 21 20 20 20 19 19 19 19 18 17 16 16 16 17 18 18 19 20 22 23 24 26 26 26 27 28 29 30 30 30 32 33 30 29 29 28 28 26 26 27 25 26 27 27 26 25 25 24 23 23 24 25 25 26 25
24 23 23 23 22 22 22 22 21 20 19 18 17 18 19 19 19 18 19 21 22 22 22 23 23 24 23 22 21 20 20 20 20 20 20 20 19 19 19 19 19 18 18 17 16 16 17 17 18 20 21 22 22 23 24 24 24 25 25 27 28 28 29 31 31 29 28 28 28 28 25 26 26 26 27 28 27 27 26 25 24 23 23 24 25 26 27 26
23 23 23 23 22 22 23 23 22 21 20 19 18 19 20 20 19 18 19 20 21 20 22 23 24 24 23 21 21 20 20 20 20 20 20 20 20 20 19 19 19 19 18 17 16 16 17 18 20 21 21 21 21 21 22 23 23 23 23 25 25 26 28 29 28 28 28 27 28 26 24 26 26 25 26 27 26 26 25 25 23 23 24 25 25 25 25 23
23 22 22 22 22 22 23 24 23 22 21 20 19 19 20 20 19 19 19 20 20 19 20 22 23 23 22 21 20 20 19 20 20 20 20 20 20 20 19 19 19 19 17 17 17 17 18 20 20 19 19 19 20 20 21 22 21 21 21 22 22 24 25 25 26 28 27 26 26 24 23 25 25 25 25 24 23 23 22 22 22 24 25 24 24 23 23 21
22 21 21 21 21 21 22 24 24 24 23 22 21 21 21 20 19 19 19 19 20 19 18 20 22 22 21 20 19 19 19 20 21 21 21 20 19 19 19 19 18 18 17 17 17 18 20 20 18 17 17 18 19 19 20 20 19 18 19 19 21 22 23 25 25 25 25 23 22 21 22 24 23 22 22 21 20 19 19 19 21 23 24 23 22 22 20 18
20 20 20 20 21 21 21 23 24 24 24 23 23 23 23 22 19 19 19 19 20 20 18 19 21 21 19 18 19 19 20 21 22 22 21 20 19 19 19 18 18 17 17 18 19 20 20 17 16 16 17 17 18 18 18 17 17 17 16 17 20 21 23 25 23 21 21 20 19 19 20 21 21 19 19 18 17 17 18 19 20 20 20 20 19 18 15 14
21 21 21 21 21 21 21 22 24 24 25 24 24 24 25 24 21 20 20 19 20 20 19 19 20 20 19 18 19 20 20 22 23 23 22 21 20 19 18 17 17 17 18 19 19 20 18 15 15 16 15 16 16 16 17 16 15 15 16 17 19 20 21 22 21 19 17 16 18 19 18 18 18 18 17 17 17 17 18 18 18 18 18 17 15 14 13 14
24 23 23 23 23 23 22 23 24 25 25 24 25 26 26 26 23 21 21 20 20 21 20 20 20 19 19 18 19 20 22 22 23 23 22 22 20 19 18 17 17 17 18 18 18 18 16 15 15 15 14 14 14 15 15 15 15 15 16 18 18 19 20 20 19 18 15 14 16 18 19 18 18 18 16 16 17 17 17 18 18 18 17 15 15 15 16 17
27 26 26 26 25 25 24 24 24 25 25 25 25 26 27 27 25 23 22 21 20 19 20 21 20 20 19 19 20 22 22 22 24 24 24 23 22 21 20 18 18 18 18 18 18 17 17 16 15 15 14 14 15 16 15 16 16 16 16 17 18 18 19 19 18 16 16 15 16 19 20 18 19 18 16 16 17 17 18 19 19 18 17 17 17 18 19 19
29 28 27 28 27 26 26 26 26 25 25 25 26 26 28 28 26 25 24 23 21 19 20 21 21 20 20 19 20 22 23 24 25 25 26 25 23 21 20 19 20 19 19 19 19 19 18 18 16 16 15 15 16 16 16 16 17 16 16 17 17 18 18 18 16 15 16 16 17 19 19 18 20 19 17 17 18 18 19 20 20 19 19 19 20 20 20 20
29 28 28 28 28 27 27 28 28 26 25 26 27 27 28 28 27 27 27 24 22 21 20 20 21 20 20 20 21 22 24 25 25 26 27 26 24 23 21 21 21 20 20 20 20 18 18 17 17 16 15 15 15 15 15 16 15 15 16 16 16 16 17 16 15 15 15 16 19 19 18 19 19 18 19 19 19 19 19 19 19 19 19 19 20 19 18 18
27 27 27 27 28 28 28 28 28 26 26 26 27 28 28 29 29 29 28 23 23 23 22 21 21 20 20 21 22 23 23 25 25 26 27 26 25 24 24 24 22 21 21 20 20 19 18 17 16 16 15 14 14 14 14 14 15 15 15 15 15 15 15 15 15 17 17 17 19 18 19 20 18 18 20 19 20 21 20 21 21 20 19 19 19 18 17 17
25 25 25 26 27 28 28 28 28 28 27 27 28 29 30 31 31 30 25 22 24 26 23 22 21 21 21 21 22 23 24 24 25 26 27 27 26 24 24 24 22 21 20 20 20 19 18 17 15 15 15 15 14 14 15 15 15 15 15 15 15 14 15 17 17 18 19 20 20 19 21 21 21 23 22 18 21 24 23 23 22 21 20 19 19 18 17 17
24 25 24 24 25 26 28 28 28 29 29 29 30 30 31 34 33 27 22 23 27 27 24 23 21 21 21 21 22 23 24 25 25 25 26 26 26 26 25 25 23 22 21 20 21 20 19 19 18 17 17 16 16 16 15 15 14 14 14 15 15 14 15 17 18 19 19 21 21 20 22 22 24 29 26 20 22 25 26 25 24 23 22 20 20 19 18 18
23 24 24 24 24 25 26 27 28 29 30 31 32 32 34 36 31 24 22 24 27 27 25 24 22 21 21 22 22 23 24 25 25 26 26 26 26 26 27 26 25 24 23 23 22 21 21 20 19 19 19 18 17 16 16 15 14 14 15 15 15 16 15 16 17 19 19 20 21 21 23 24 27 29 26 24 25 26 27 27 26 26 24 23 23 22 20 20
23 23 24 24 24 24 25 26 27 29 31 33 34 35 37 35 28 24 23 25 27 27 26 24 24 23 22 23 23 23 24 25 25 26 26 26 26 26 25 25 25 25 25 24 23 23 23 21 21 21 20 19 18 18 18 16 16 18 18 18 19 19 18 17 18 19 18 19 21 22 24 26 27 26 24 25 26 26 28 28 28 28 27 26 26 25 24 23
24 24 25 25 25 25 25 26 27 28 30 33 35 38 37 32 27 26 26 26 27 27 25 25 26 25 24 24 24 24 24 24 25 25 25 25 25 25 24 24 25 25 24 24 23 23 22 22 22 21 21 21 20 20 20 18 19 20 20 21 20 19 19 18 18 20 20 20 22 22 24 25 27 27 26 26 26 27 28 29 29 29 28 28 28 27 27 26
24 24 25 26 26 26 26 27 28 29 30 32 35 38 36 31 29 29 29 29 28 27 26 26 27 27 26 25 24 25 25 25 25 24 24 24 24 24 23 23 24 24 24 23 22 22 21 21 21 22 23 23 22 22 22 22 22 21 21 21 19 18 21 21 19 20 21 22 23 23 23 24 25 27 29 29 29 29 29 30 30 30 30 30 29 29 30 29
25 25 25 26 26 27 27 28 29 30 31 33 35 36 34 32 31 30 31 31 31 29 28 28 29 28 28 26 25 26 26 25 25 25 25 24 24 24 23 23 24 24 25 25 23 23 22 21 21 22 24 24 24 24 24 25 25 23 23 22 19 18 21 22 22 22 21 21 22 23 24 24 24 25 26 29 32 32 32 32 32 32 32 32 32 32 32 32
25 25 26 27 27 27 28 29 30 31 33 34 34 33 32 32 31 31 32 33 33 32 31 31 31 29 29 29 28 27 26 26 26 26 26 26 26 26 25 24 24 25 26 27 27 25 24 23 22 22 24 25 26 27 26 26 27 27 26 24 23 23 22 21 22 21 20 20 21 22 22 22 24 25 24 25 28 30 31 33 33 33 33 33 34 34 34 34
26 26 26 27 27 28 28 29 30 32 34 34 34 34 32 31 32 32 33 34 35 35 34 34 32 31 31 31 30 28 27 28 28 28 28 28 28 27 26 26 26 26 26 27 28 27 26 26 24 23 24 25 26 27 27 26 26 27 27 26 26 26 24 23 22 21 20 19 19 19 20 21 22 23 22 21 23 25 28 30 31 32 33 33 33 33 33 32
26 27 27 27 27 28 28 30 31 32 33 34 35 35 33 32 32 33 35 35 36 37 37 35 34 33 32 31 31 31 30 29 29 29 29 29 29 29 28 27 28 27 27 28 28 28 28 28 27 26 24 24 26 27 27 28 26 25 24 23 23 23 23 25 25 24 23 21 19 17 18 19 18 19 21 21 22 24 25 26 27 29 30 30 30 30 30 30
26 26 27 27 28 28 28 29 30 31 33 35 35 36 36 34 33 35 36 37 37 38 38 37 36 34 33 33 33 33 32 30 29 29 29 29 29 29 29 29 30 30 30 30 29 29 29 28 29 29 27 26 27 26 27 28 28 27 27 25 23 22 22 23 23 23 23 23 23 20 19 19 17 17 19 19 20 22 22 24 25 26 27 27 27 28 27 27
25 25 25 26 27 27 27 27 28 31 34 34 34 36 36 36 35 36 37 38 38 39 38 38 37 35 34 33 33 33 32 31 30 29 29 29 29 29 28 28 29 30 32 32 32 31 32 31 31 30 29 29 29 27 27 28 29 30 31 31 29 27 25 25 23 23 21 21 22 21 21 21 17 15 17 17 17 19 19 21 22 22 23 23 23 23 23 24
24 24 24 24 24 24 24 23 23 26 30 31 32 33 35 37 37 36 38 39 39 38 37 37 37 36 35 34 33 33 33 31 31 30 28 28 28 27 27 26 27 28 30 31 33 34 34 34 33 32 31 30 29 29 30 30 31 32 31 32 33 32 31 30 28 26 23 22 21 19 21 22 18 16 17 16 16 17 18 19 20 20 20 19 19 19 19 20
24 24 24 23 22 21 22 21 20 21 25 28 29 28 30 34 37 37 38 39 39 38 36 35 34 34 34 34 34 34 33 32 31 30 30 29 28 27 26 25 26 26 27 27 29 32 34 35 34 34 34 31 29 31 30 29 30 31 31 32 34 35 34 32 30 28 28 27 24 21 22 21 18 17 18 17 18 18 18 19 19 20 20 19 19 19 18 18
25 25 25 24 22 21 21 21 20 20 22 26 28 27 28 31 34 36 38 39 39 38 35 33 32 31 32 33 34 34 33 32 31 31 31 30 29 28 27 25 25 26 26 25 25 27 31 35 36 37 37 35 33 32 30 28 28 29 31 32 33 34 34 33 31 28 28 28 26 24 24 23 20 18 18 19 19 19 19 19 19 20 21 21 21 20 19 19
25 26 26 26 23 21 20 19 20 19 20 22 24 25 28 31 32 35 37 37 37 37 36 33 32 30 30 31 32 33 34 33 32 32 31 31 30 29 28 27 26 26 25 24 24 24 27 32 36 38 39 40 38 34 31 29 29 29 30 31 32 33 33 33 32 29 26 25 24 24 24 24 23 22 21 22 21 21 20 20 20 20 20 21 21 21 20 20
26 27 28 26 21 16 12 13 15 16 17 19 20 22 25 29 32 33 33 34 35 35 35 33 32 30 29 29 30 32 33 34 34 33 32 32 31 30 29 28 26 26 25 24 24 24 24 26 28 30 32 37 41 39 34 32 32 32 31 30 31 32 32 33 33 31 30 28 26 26 26 25 25 25 24 24 24 23 22 22 21 21 21 22 22 22 22 22
27 28 27 23 16 7 2 3 6 10 12 14 16 19 23 27 29 30 30 31 32 33 33 32 31 30 29 28 29 30 32 34 34 34 33 32 32 31 30 29 28 27 26 25 24 24 25 25 24 23 22 24 31 38 39 37 35 34 34 33 33 33 33 34 33 33 33 32 31 31 29 27 27 27 26 26 25 25 24 24 24 23 23 23 23 24 24 25
28 28 26 21 10 5 9 8 2 8 9 11 13 17 22 25 26 27 27 27 28 29 29 29 28 28 27 27 28 28 30 32 33 33 34 33 33 32 31 30 29 27 26 24 24 24 25 24 24 23 21 18 19 25 33 39 39 38 37 36 35 35 35 34 34 34 34 34 34 34 33 32 31 29 28 28 27 27 26 26 26 26 26 26 26 27 28 28
29 29 26 20 8 8 10 10 6 3 3 10 14 16 19 22 23 23 23 24 25 25 26 26 26 25 25 25 25 26 27 29 31 32 33 33 32 32 31 30 29 28 26 25 24 22 21 21 20 21 21 21 19 18 22 29 35 39 40 40 39 38 38 37 36 36 36 37 37 36 36 36 35 33 32 32 31 30 30 29 29 30 30 31 31 32 32 32
30 30 28 22 11 7 5 6 9 13 13 9 11 14 18 20 20 20 19 20 21 22 22 23 24 24 24 24 24 24 24 26 28 30 31 31 31 31 31 31 30 29 29 28 27 25 23 22 21 21 22 23 22 21 21 21 25 30 34 37 39 40 40 40 40 40 40 40 40 40 40 39 38 37 36 35 34 34 33 33 33 34 35 36 38 39 38 36
Wind_Direction
286 285 283 281 279 277 275 272 269 266 265 265 266 267 268 269 269 270 270 271 271 270 269 267 265 262 258 256 254 253 252 251 249 248 247 246 245 246 246 246 247 247 247 247 246 245 244 243 243 244 244 243 242 241 241 239 237 237 236 232 227 226 227 230 235 235 239 244 238 235 235 237 239 237 235 238 240 240 241 245 245 246 249 251 251 251 255 260
285 285 283 282 279 276 274 272 268 265 262 261 262 264 265 265 266 268 269 270 270 270 269 267 265 262 259 256 254 252 250 249 248 247 246 245 244 244 244 245 245 245 246 245 244 243 241 239 238 240 241 240 240 240 239 238 237 235 231 226 221 221 224 229 236 240 242 243 239 236 234 235 237 237 237 238 240 241 243 245 246 247 247 250 253 256 261 267
285 285 284 283 280 277 274 271 268 265 261 258 258 260 261 262 263 264 266 267 268 268 267 266 264 262 259 256 253 251 250 248 246 245 245 244 243 243 243 243 243 244 244 243 242 241 239 236 235 237 238 238 238 238 236 235 235 233 228 220 219 221 224 229 237 242 241 240 240 236 235 236 238 240 239 240 244 246 248 247 245 245 246 248 253 259 265 270
286 285 284 283 282 279 276 272 269 266 262 258 255 256 257 258 260 261 262 263 264 264 264 263 262 260 258 256 254 251 250 248 246 244 243 243 243 242 242 242 242 242 242 241 240 239 238 234 233 234 236 237 237 236 234 233 232 231 225 220 220 221 222 228 235 240 240 238 239 237 237 239 240 243 242 242 247 248 247 247 245 245 247 249 254 262 267 270
286 285 284 283 282 280 278 274 270 268 265 261 256 254 254 255 256 258 259 261 261 260 259 258 257 256 254 254 253 252 251 249 247 245 243 242 242 242 241 241 241 241 241 241 240 239 237 234 233 233 234 235 235 236 234 231 231 229 224 222 221 220 222 228 233 238 238 236 237 236 236 240 242 245 243 237 239 240 240 244 246 247 250 254 260 267 270 271
285 284 283 281 280 279 278 276 273 269 267 264 259 255 252 252 253 254 256 258 258 258 257 255 254 253 251 250 250 250 251 251 248 246 245 242 241 240 240 240 240 241 241 241 240 239 237 235 234 233 234 235 233 235 234 230 229 226 222 221 218 219 224 227 231 235 235 234 234 233 231 234 238 241 241 235 235 239 241 245 249 252 256 261 265 269 269 270
285 284 283 281 279 278 277 276 274 271 268 266 262 257 253 251 251 252 253 255 255 256 256 255 254 254 253 251 249 248 248 250 248 247 246 244 243 241 241 240 240 240 240 240 240 239 238 236 234 233 234 234 232 233 233 229 227 224 221 220 218 220 224 227 228 230 233 233 233 232 230 230 233 236 239 238 238 241 244 247 251 256 261 263 263 264 264 266
284 284 283 282 280 278 277 276 274 272 270 267 264 260 255 251 250 251 252 253 254 254 254 255 254 255 256 255 252 249 247 247 248 246 246 246 245 244 243 242 241 241 241 240 240 239 238 236 235 234 234 233 232 233 232 230 228 224 221 221 220 220 225 227 226 225 230 232 233 233 232 232 231 235 239 241 243 244 246 250 253 256 259 259 258 259 260 263
283 284 283 283 282 281 279 277 275 273 271 267 264 261 257 253 250 250 251 252 253 253 253 254 254 256 257 258 256 252 248 246 245 245 245 245 244 244 245 244 243 242 241 240 240 239 238 236 235 233 234 234 232 233 232 230 229 224 221 221 219 219 225 229 224 223 228 231 233 233 234 235 233 235 241 243 245 246 248 250 253 255 256 256 257 258 260 263
281 282 283 283 283 283 283 281 278 275 272 269 265 261 258 255 252 251 251 252 253 253 253 253 254 256 257 257 256 254 250 246 243 242 243 243 243 243 244 245 244 242 242 241 240 239 238 237 236 235 235 234 232 232 231 231 229 224 222 222 219 221 227 229 225 224 228 232 234 232 234 238 236 237 241 242 242 244 248 251 252 253 254 256 257 258 261 262
280 281 281 282 283 284 286 286 283 278 274 271 267 262 258 256 253 252 252 252 253 254 254 253 254 255 256 255 253 252 250 246 243 241 241 242 243 243 243 244 244 243 242 242 242 241 240 239 239 238 237 235 234 233 232 232 230 225 223 222 220 223 228 230 227 225 227 230 233 233 235 239 239 239 239 239 241 243 245 249 250 251 252 252 254 256 257 258
278 279 280 281 282 283 285 288 289 286 279 274 269 264 258 255 253 252 251 252 253 254 254 254 254 253 253 252 250 249 248 245 243 240 239 241 243 243 243 244 244 244 243 243 244 243 242 241 240 238 237 236 235 234 232 231 229 225 223 222 221 223 227 229 227 226 227 229 232 234 237 239 239 240 240 239 240 240 240 243 245 246 247 245 246 249 251 253
276 277 279 279 280 281 283 286 290 291 287 279 272 266 260 254 252 251 250 250 251 252 253 253 253 251 251 250 248 247 245 244 242 240 239 239 241 242 243 244 244 244 245 245 245 244 242 241 239 238 236 233 233 232 231 229 228 225 222 221 221 222 227 228 227 226 226 229 230 232 234 239 241 237 236 238 238 238 236 237 239 239 238 237 239 243 246 249
274 275 276 278 279 280 282 283 286 290 291 286 277 269 262 255 251 250 249 249 249 251 252 252 252 251 250 249 247 246 245 244 242 239 239 239 240 242 243 244 244 245 246 246 245 243 241 240 238 236 233 231 231 230 229 227 224 223 220 220 220 221 226 226 225 226 225 227 227 229 230 234 240 236 232 235 235 236 235 232 233 231 231 232 235 241 245 249
273 273 274 276 277 279 281 282 283 286 290 290 284 274 264 256 251 249 249 248 249 250 251 251 251 251 250 248 246 246 245 243 241 239 239 239 240 242 242 242 244 245 246 245 244 242 241 240 237 234 232 230 229 228 228 225 222 221 218 220 219 220 226 225 224 227 227 226 225 228 228 228 236 235 230 234 233 232 233 228 228 227 228 231 234 241 247 253
271 271 272 273 275 277 279 281 281 282 285 288 287 278 268 258 251 249 248 247 248 248 249 251 251 251 251 249 246 246 245 242 240 239 239 239 240 240 239 239 241 242 243 242 240 239 238 238 236 234 231 228 226 226 226 223 221 219 216 219 219 219 226 226 226 228 229 228 226 228 227 226 233 234 231 236 235 233 232 228 227 227 228 231 236 243 250 256
268 269 269 270 272 274 276 279 280 280 281 284 285 280 270 261 253 249 248 247 247 247 248 250 252 251 251 249 247 247 245 242 240 239 239 239 238 235 234 235 237 240 240 239 237 236 235 235 234 232 230 227 224 223 223 222 219 217 215 218 218 218 224 227 228 229 230 231 229 229 228 229 234 234 234 237 238 238 236 233 232 230 230 233 238 245 251 257
265 266 267 268 269 271 272 274 277 279 279 279 279 276 270 263 256 251 248 247 247 246 247 249 251 251 251 249 247 247 245 242 240 239 238 237 234 232 231 232 234 235 237 236 234 232 232 231 230 229 228 226 224 222 221 220 217 214 213 215 217 217 221 226 228 227 228 231 232 231 230 232 235 234 235 238 239 240 239 237 237 234 234 236 240 245 251 254
264 264 265 265 266 267 269 270 272 276 277 276 274 270 267 263 258 253 250 249 248 248 249 250 251 251 251 249 247 246 243 241 240 239 237 234 230 229 229 229 229 230 232 233 231 229 228 228 228 227 227 226 224 222 221 220 216 212 212 213 214 216 219 224 228 227 227 232 234 235 233 233 235 233 236 239 239 241 240 238 239 238 238 239 241 245 249 251
263 264 264 263 263 264 266 267 267 270 273 274 270 266 263 261 259 256 253 252 250 249 250 251 252 251 250 249 247 245 242 240 239 236 233 230 228 228 228 227 227 226 227 229 229 228 226 227 226 226 224 224 222 222 223 223 220 217 215 215 215 217 219 225 229 229 229 232 235 237 236 235 236 235 236 239 240 240 240 239 240 240 241 242 243 244 247 248
263 263 263 263 261 261 263 264 264 265 267 270 269 265 262 260 259 257 256 254 251 249 250 250 251 251 248 247 246 244 241 238 236 232 228 227 227 227 226 225 224 223 222 224 225 225 225 224 223 223 224 224 223 224 227 227 225 223 220 220 221 220 222 227 230 231 231 232 235 237 237 238 239 237 236 237 239 239 240 241 241 241 241 240 240 241 244 246
262 262 262 262 261 259 260 262 262 262 262 264 266 264 262 260 259 257 256 256 253 248 248 249 250 250 248 246 245 243 240 237 232 227 224 223 225 225 224 224 223 221 220 220 221 222 222 221 221 223 224 225 225 224 226 227 226 225 223 224 225 224 227 232 234 234 234 233 236 237 238 239 238 236 237 237 239 240 241 242 239 235 233 232 233 236 240 243
262 261 261 261 261 260 259 260 260 260 259 258 260 263 263 260 258 256 254 257 255 248 247 249 249 249 247 245 244 242 239 233 227 222 221 222 224 225 225 224 223 222 220 219 219 218 220 221 223 225 225 226 227 224 225 226 225 224 224 225 226 226 229 233 235 235 236 236 237 237 236 237 237 237 237 238 239 239 239 238 233 228 226 225 226 230 235 240
262 262 262 261 261 260 259 259 259 259 257 255 256 258 261 260 258 256 253 254 256 249 244 247 248 247 245 243 242 239 235 228 222 219 219 222 224 225 226 225 224 223 221 220 218 218 221 224 226 226 226 227 228 227 226 226 225 223 223 222 224 227 226 228 233 234 236 237 234 233 233 235 236 235 234 234 233 232 229 226 225 225 224 221 223 228 234 239
263 263 263 263 263 261 259 259 259 258 256 254 253 254 257 258 257 256 252 251 254 251 244 245 247 246 243 240 237 235 231 224 219 217 218 221 223 224 225 225 224 221 220 220 219 221 225 225 224 225 226 226 227 229 228 227 225 222 220 220 224 227 226 230 235 235 236 235 229 226 227 233 235 230 228 224 221 222 221 220 222 224 222 221 224 229 234 238
264 264 264 264 264 263 261 259 259 258 256 254 252 252 254 255 254 254 253 250 251 250 246 244 245 244 240 234 231 230 226 221 218 218 219 221 224 226 226 225 224 221 220 221 221 223 224 222 223 225 227 227 228 229 228 226 224 222 219 219 223 227 229 233 235 232 231 229 225 220 218 226 230 228 225 219 215 216 216 218 221 220 218 219 220 222 228 233
266 265 265 264 264 264 263 260 259 258 257 254 251 250 251 253 252 252 252 250 249 248 246 244 242 242 239 233 228 226 222 218 218 219 219 220 222 224 226 225 225 224 223 224 226 226 224 223 223 225 226 226 225 225 224 221 219 221 219 219 223 226 229 232 232 228 224 221 219 215 214 220 226 228 226 221 219 218 217 217 217 214 210 209 210 215 221 223
268 267 266 265 263 263 262 261 259 258 257 255 252 250 250 251 250 249 250 251 250 247 245 244 241 239 237 233 228 226 223 220 218 218 220 221 222 224 225 224 224 225 224 223 226 224 223 223 222 222 222 220 220 219 218 215 214 217 218 218 220 222 226 229 229 227 224 221 216 214 218 221 223 227 224 222 224 220 217 213 208 206 202 201 208 213 216 217
268 267 266 265 263 261 260 260 259 257 256 255 252 250 249 249 249 247 247 247 248 246 244 243 240 237 236 233 229 227 225 224 222 221 223 223 224 225 226 225 225 227 226 225 227 225 223 224 222 221 220 217 219 218 216 214 214 216 217 218 220 222 225 227 227 227 226 224 218 217 220 216 217 224 221 219 224 221 216 209 204 204 203 206 213 215 215 217
269 267 266 264 263 261 258 257 258 257 256 255 253 251 249 248 247 246 244 243 244 245 244 242 239 236 234 232 230 228 226 226 225 226 227 226 225 224 224 225 227 228 227 230 232 232 229 228 227 225 223 222 223 221 218 218 218 219 219 220 223 223 226 228 227 228 227 225 223 222 222 215 214 223 223 218 222 224 220 213 209 209 211 216 222 223 222 222
269 267 265 264 262 260 257 255 256 256 255 254 253 251 249 247 245 243 242 242 243 244 242 241 238 234 232 230 230 230 229 229 228 228 230 229 227 227 227 227 228 228 230 233 235 235 234 234 233 231 229 227 227 226 225 223 222 223 223 223 225 225 227 228 227 229 229 227 226 223 224 223 216 222 227 218 215 222 222 217 215 215 218 223 225 228 231 233
270 268 266 263 261 260 258 255 253 252 251 251 251 249 248 246 244 243 242 241 242 242 240 239 237 233 230 228 228 229 230 230 229 230 232 231 230 229 230 230 229 228 231 234 236 237 238 238 237 235 233 229 228 227 228 227 224 225 225 222 223 223 223 223 225 230 231 230 228 221 223 227 220 223 231 220 211 217 221 222 221 222 224 224 224 228 235 242
274 272 269 265 262 260 258 256 251 249 248 248 248 247 246 246 244 243 240 238 241 241 238 237 236 233 231 228 227 227 228 229 230 230 231 232 231 229 229 229 227 225 225 229 234 236 238 239 237 235 234 231 228 227 229 231 230 231 229 225 223 221 222 224 226 232 232 232 234 228 227 229 226 228 233 226 216 218 222 226 228 231 230 226 226 229 236 244
277 275 273 269 265 262 260 257 252 249 247 246 246 245 245 245 244 241 237 237 241 241 238 235 234 233 230 227 226 226 227 229 229 230 231 232 231 230 230 230 228 225 223 224 228 231 234 237 239 238 237 234 230 229 229 229 231 232 228 226 223 220 223 226 226 231 235 235 238 236 232 232 231 233 234 231 226 223 225 229 232 235 234 231 232 235 238 245
280 278 276 273 269 264 261 258 254 250 247 245 245 244 244 245 244 238 234 235 239 240 237 235 233 231 229 227 226 225 227 228 228 229 230 232 233 233 233 233 231 229 228 226 228 231 232 235 237 238 238 236 232 231 229 226 228 232 231 229 225 223 227 231 230 232 236 237 238 237 236 236 236 237 235 231 230 229 230 233 235 236 237 237 238 240 242 245
282 280 277 275 271 267 263 259 255 251 248 246 245 245 245 246 243 236 231 230 235 237 235 234 232 230 228 228 226 225 226 228 228 227 228 231 233 234 233 233 233 232 231 229 229 232 233 236 239 239 238 236 233 233 231 226 225 231 238 237 233 233 236 238 241 241 240 242 243 240 240 241 240 241 239 235 234 234 235 236 238 239 240 242 242 243 245 246
286 283 280 276 273 269 264 260 256 253 250 247 245 245 246 245 242 237 230 227 230 233 231 231 231 228 227 227 226 224 224 227 229 228 228 229 230 232 232 232 233 232 232 230 228 228 228 233 238 236 234 234 233 234 235 231 226 227 236 241 241 243 243 239 240 244 243 244 245 243 243 245 243 242 241 238 237 237 237 238 240 242 243 245 245 246 247 248
290 287 283 279 274 270 266 261 256 253 250 248 246 246 245 243 240 237 231 227 226 228 228 228 228 227 225 225 225 224 222 224 228 228 229 230 230 230 229 231 232 231 232 229 227 227 224 226 233 234 233 233 232 233 236 237 233 227 230 237 238 240 246 245 242 245 248 249 249 248 249 249 246 243 240 236 235 236 237 239 241 243 245 246 247 248 248 249
292 289 285 281 276 272 267 262 258 253 251 249 248 247 245 241 239 236 233 229 225 225 225 226 227 226 224 224 224 224 221 222 225 227 229 231 231 230 228 230 232 232 232 229 227 227 224 223 229 235 234 233 233 233 233 238 240 235 232 234 234 234 240 246 245 245 248 250 251 253 252 248 243 240 239 235 235 237 238 241 243 245 248 250 250 251 250 250
295 291 286 281 277 272 267 263 258 254 252 250 248 246 243 240 236 233 232 230 226 224 224 224 225 224 223 223 224 224 222 222 225 225 228 231 233 233 231 230 233 235 235 233 230 228 225 222 226 234 235 232 233 233 231 233 238 239 238 237 237 238 239 242 244 242 239 241 246 249 249 245 240 239 240 236 234 236 237 240 243 245 248 250 250 251 251 250
298 293 287 282 277 272 268 263 259 255 252 249 245 243 239 236 232 229 230 229 226 225 224 223 223 223 223 222 223 225 224 224 226 226 228 231 233 235 234 232 234 236 237 237 233 229 228 226 226 232 235 233 233 234 232 231 233 234 237 238 238 239 240 243 246 244 239 238 240 244 247 245 239 236 237 234 232 234 235 237 239 241 244 246 247 249 249 249
302 298 293 288 282 276 270 264 259 254 250 247 243 240 237 234 230 227 227 227 226 225 223 222 222 222 222 222 223 225 225 225 226 228 229 232 234 236 236 235 234 234 235 236 234 231 230 228 227 231 233 233 235 235 233 234 233 231 232 233 232 232 235 239 242 243 241 239 239 241 245 245 237 232 233 233 232 234 235 236 237 239 242 245 247 248 249 248
309 306 301 295 288 281 273 265 258 252 249 246 243 239 234 230 228 226 225 226 226 225 223 221 221 220 221 222 223 226 227 226 227 228 230 233 235 236 237 237 237 237 236 235 234 232 229 226 227 231 233 235 238 237 235 236 234 231 232 232 230 231 234 235 235 238 239 238 237 238 241 241 235 231 232 231 230 230 231 234 236 239 242 246 248 249 249 247
317 315 311 303 293 282 273 264 257 251 246 242 240 237 232 228 226 225 223 224 225 225 223 222 221 220 220 221 223 226 227 227 228 229 230 232 235 237 238 240 241 242 241 239 236 234 230 228 228 228 232 237 239 238 238 238 234 233 235 235 233 233 236 236 236 238 238 236 235 235 238 239 233 230 232 230 227 226 226 230 235 238 241 245 247 247 246 245
326 325 321 313 300 285 272 264 259 253 246 240 236 233 228 225 224 223 222 223 224 225 224 222 221 221 220 221 223 225 227 228 228 229 230 232 234 236 239 241 243 245 246 244 242 238 236 234 231 229 230 232 235 238 240 241 240 239 239 238 236 236 237 237 238 239 240 239 238 235 237 237 229 225 229 229 227 227 228 232 236 239 241 243 244 246 244 243
332 330 326 318 307 291 276 265 259 255 249 241 236 231 226 221 220 220 221 221 222 223 223 222 220 221 221 221 222 225 227 229 229 230 232 234 235 237 239 241 243 244 245 246 245 243 241 238 235 233 232 230 232 237 239 239 242 243 242 239 237 236 236 237 237 239 241 242 241 237 235 238 235 229 230 231 229 230 231 234 238 240 241 243 245 247 246 245
337 334 330 323 312 296 280 266 256 250 245 239 234 230 226 221 217 218 219 220 221 222 223 222 221 221 222 222 223 224 227 229 230 231 233 236 237 239 240 242 242 243 244 245 245 245 246 242 237 236 237 234 234 236 235 234 235 238 241 240 239 238 237 237 237 238 238 238 239 236 234 238 240 237 235 235 235 235 237 238 239 239 240 241 243 245 246 247
344 341 336 329 322 308 288 268 253 240 236 234 230 225 222 218 216 217 218 219 220 221 222 223 222 222 224 224 224 224 226 228 231 233 235 237 239 241 242 244 245 244 244 245 245 247 249 247 241 239 238 237 237 236 234 232 231 233 235 237 237 237 237 237 237 238 237 234 235 237 236 237 240 241 239 238 238 239 241 241 240 239 238 239 242 243 245 246
352 349 345 341 338 340 9 315 254 226 223 227 224 218 215 213 212 213 215 217 219 220 221 222 223 223 224 225 225 225 225 228 230 234 236 238 241 243 244 245 247 248 249 250 249 249 250 249 246 242 239 237 236 236 233 230 231 234 236 236 236 236 236 237 237 238 239 237 237 238 239 238 240 240 240 240 240 241 242 242 241 241 240 240 241 243 244 245
359 357 356 356 0 85 86 67 174 208 214 217 214 210 208 208 207 209 212 214 217 219 220 221 223 223 224 225 226 226 226 228 229 233 236 239 241 244 246 247 248 251 254 256 255 252 250 249 248 246 246 245 242 238 234 230 231 234 236 237 237 238 238 239 239 240 241 242 241 242 242 242 241 241 241 241 242 242 242 242 242 242 242 242 242 243 244 245
4 5 7 12 39 116 92 71 97 129 162 187 197 200 201 202 203 204 208 212 214 216 217 219 221 222 223 224 226 227 227 228 229 231 234 238 241 244 247 248 249 249 250 252 254 252 247 246 249 251 253 253 252 250 242 236 235 235 236 237 238 239 240 241 242 243 243 244 244 244 244 244 243 243 243 243 244 244 245 244 244 243 244 244 244 244 244 243
9 12 15 23 52 119 123 88 77 54 63 121 173 190 194 197 199 198 203 208 212 215 215 217 220 221 223 225 226 227 228 229 230 231 233 236 239 242 245 246 247 248 247 248 251 252 251 253 258 261 260 258 255 254 253 247 242 240 239 241 242 242 241 241 242 243 244 245 246 246 245 245 244 243 244 244 244 245 246 247 247 247 248 249 249 248 245 243